Location: Asbacherhof
(48.8543°N, 10.7903°E)
Time: 07:26:37
(UTC+00:00)

CRYOSAT 2 - Visible Passes

Search period start: 06 October 2022 00:00
Search period end: 16 October 2022 00:00
Orbit: 717 x 721 km, 92.0° (Epoch: 05 October)

Date Brightness Start Highest point End Pass type
(mag) Time Alt. Az. Time Alt. Az. Time Alt. Az.
06 Oct 4.3 18:31:39 11° SSE 18:36:23 68° E 18:41:16 10° N visible
06 Oct 7.0 20:12:35 10° WSW 20:15:44 17° W 20:18:52 10° NW visible
07 Oct 5.3 17:42:13 10° SE 17:46:17 27° ENE 17:50:22 10° NNE visible
07 Oct 5.5 19:20:16 10° SSW 19:24:54 42° W 19:29:34 10° NNW visible
08 Oct 4.2 18:29:33 10° SSE 18:34:26 74° E 18:39:21 10° N visible
08 Oct 7.1 20:10:57 10° WSW 20:13:50 15° WNW 20:16:45 10° NW visible
09 Oct 5.2 17:40:08 10° SE 17:44:18 29° ENE 17:48:30 10° NNE visible
09 Oct 5.7 19:18:25 10° SSW 19:23:00 39° W 19:27:35 10° NNW visible
10 Oct 4.2 18:27:36 10° S 18:32:29 80° E 18:37:25 10° N visible
10 Oct 7.2 20:09:20 10° WSW 20:11:58 14° WNW 20:14:36 10° NW visible
11 Oct 5.1 17:38:03 10° SE 17:42:20 31° ENE 17:46:37 10° NNE visible
11 Oct 5.8 19:16:35 10° SSW 19:21:04 36° W 19:25:36 10° NNW visible
12 Oct 4.3 18:25:39 10° S 18:30:33 87° E 18:35:29 10° N visible
12 Oct 7.3 20:07:47 10° WSW 20:10:05 13° WNW 20:12:23 10° NW visible
13 Oct 5.0 17:36:00 10° SE 17:40:21 33° ENE 17:44:45 10° NNE visible
13 Oct 6.0 19:14:45 10° SSW 19:19:10 33° W 19:23:36 10° NNW visible
14 Oct 4.3 18:23:42 10° S 18:28:36 87° W 18:33:32 10° N visible
14 Oct 7.4 20:06:18 10° W 20:08:12 12° WNW 20:10:07 10° NW visible
15 Oct 4.9 17:33:56 10° SE 17:38:23 36° ENE 17:42:51 10° N visible
15 Oct 6.1 19:12:56 10° SSW 19:17:15 31° W 19:21:35 10° NNW visible
